GFSGL_prec_precacc_147.txt.gz
Total_Precipitation_Accumulation
0.82 0.63 0.33 0.55 0.62 0.37 0.40 0.58 0.61 0.69 0.65 0.54 0.67 0.82 0.68 0.53 0.52 0.53 0.53 0.58 0.70 0.69 0.67 0.71 0.72 0.72 0.83 0.84 0.90 1.02 1.19 1.40 1.63 1.38 1.26 1.19 1.18 1.16 1.11 0.93 0.78 0.58 0.55
0.79 0.69 0.45 0.55 0.85 0.62 0.46 0.40 0.47 0.55 0.62 0.51 0.40 0.45 0.62 0.68 0.69 0.69 0.85 0.80 0.69 0.74 0.80 0.87 0.82 0.78 0.78 0.80 0.89 0.99 1.20 1.45 1.73 1.74 1.61 1.48 1.27 0.97 0.70 0.50 0.35 0.24 0.17
0.39 0.58 0.52 0.60 0.70 0.64 0.69 0.53 0.31 0.28 0.33 0.35 0.36 0.35 0.34 0.40 0.51 0.68 0.72 0.72 0.76 0.77 0.69 0.68 0.73 0.86 1.05 1.19 1.28 1.30 1.27 1.16 1.08 0.97 0.76 0.62 0.53 0.42 0.33 0.26 0.19 0.15 0.11
0.28 0.26 0.24 0.25 0.28 0.38 0.45 0.54 0.55 0.34 0.27 0.28 0.31 0.35 0.35 0.23 0.27 0.29 0.28 0.36 0.41 0.47 0.49 0.47 0.50 0.57 0.64 0.68 0.71 0.67 0.59 0.52 0.46 0.43 0.47 0.43 0.38 0.30 0.31 0.30 0.28 0.25 0.22
0.25 0.27 0.17 0.19 0.21 0.22 0.36 0.28 0.34 0.42 0.25 0.18 0.17 0.16 0.23 0.24 0.34 0.28 0.21 0.26 0.37 0.48 0.56 0.54 0.51 0.51 0.47 0.40 0.37 0.35 0.39 0.44 0.57 0.70 0.62 0.53 0.38 0.28 0.26 0.25 0.26 0.22 0.23
0.16 0.11 0.13 0.10 0.07 0.10 0.09 0.07 0.14 0.19 0.18 0.21 0.22 0.16 0.16 0.27 0.53 0.39 0.35 0.37 0.37 0.37 0.36 0.32 0.31 0.35 0.27 0.24 0.21 0.20 0.23 0.41 0.55 0.65 0.59 0.39 0.23 0.24 0.27 0.30 0.40 0.39 0.35
0.11 0.05 0.14 0.19 0.08 0.11 0.24 0.18 0.14 0.18 0.38 0.53 0.56 0.60 0.70 0.82 0.91 0.75 0.61 0.46 0.43 0.37 0.33 0.29 0.22 0.14 0.10 0.07 0.06 0.11 0.23 0.32 0.32 0.23 0.14 0.13 0.16 0.21 0.46 0.47 0.36 0.38 0.28
0.56 0.54 0.64 0.33 0.36 0.28 0.43 0.74 0.77 0.74 0.88 0.78 0.69 0.82 0.89 0.82 0.70 0.53 0.49 0.36 0.31 0.29 0.24 0.12 0.05 0.02 0.01 0.03 0.08 0.22 0.16 0.11 0.05 0.06 0.07 0.11 0.20 0.24 0.31 0.47 0.47 0.39 0.30
0.60 0.78 0.88 0.77 0.92 1.03 0.94 0.87 1.12 0.88 0.81 0.71 0.57 0.48 0.45 0.43 0.29 0.18 0.12 0.10 0.08 0.05 0.03 0.01 0.02 0.03 0.02 0.11 0.17 0.23 0.08 0.01 0.02 0.06 0.14 0.14 0.19 0.27 0.32 0.49 0.57 0.54 0.47
0.66 0.63 0.58 0.74 0.83 0.89 0.89 0.84 0.74 0.60 0.60 0.49 0.38 0.33 0.24 0.14 0.08 0.05 0.05 0.03 0.02 0.01 0.00 0.00 0.02 0.03 0.07 0.23 0.17 0.05 0.03 0.03 0.12 0.16 0.15 0.15 0.16 0.17 0.24 0.22 0.40 0.91 0.71
0.71 1.02 0.94 0.75 0.69 0.53 0.46 0.44 0.31 0.23 0.21 0.15 0.08 0.05 0.02 0.01 0.00 0.00 0.00 0.01 0.01 0.02 0.02 0.01 0.01 0.07 0.19 0.16 0.10 0.05 0.07 0.10 0.14 0.15 0.13 0.13 0.16 0.21 0.28 0.30 0.34 0.77 1.09
0.37 0.40 0.51 0.29 0.22 0.18 0.11 0.07 0.03 0.01 0.00 0.00 0.00 0.00 0.00 0.00 0.00 0.01 0.01 0.04 0.07 0.07 0.05 0.03 0.07 0.25 0.17 0.09 0.09 0.10 0.13 0.16 0.12 0.10 0.11 0.12 0.15 0.18 0.22 0.31 0.43 0.57 0.72
0.03 0.03 0.02 0.02 0.02 0.00 0.00 0.00 0.00 0.00 0.00 0.01 0.01 0.01 0.01 0.00 0.02 0.05 0.06 0.09 0.14 0.16 0.11 0.18 0.29 0.31 0.26 0.22 0.21 0.19 0.19 0.18 0.13 0.17 0.13 0.11 0.13 0.20 0.33 0.41 0.35 0.27 0.32
0.00 0.00 0.00 0.00 0.01 0.01 0.06 0.11 0.14 0.11 0.08 0.05 0.04 0.06 0.09 0.10 0.07 0.06 0.09 0.13 0.19 0.21 0.19 0.25 0.22 0.25 0.30 0.28 0.31 0.40 0.39 0.30 0.28 0.32 0.31 0.30 0.35 0.36 0.33 0.36 0.46 0.35 0.47
0.01 0.03 0.03 0.03 0.03 0.03 0.03 0.04 0.08 0.15 0.27 0.34 0.37 0.35 0.29 0.26 0.24 0.32 0.34 0.29 0.24 0.29 0.34 0.23 0.22 0.17 0.18 0.23 0.26 0.29 0.38 0.37 0.46 0.50 0.61 0.57 0.50 0.41 0.33 0.32 0.46 0.52 0.56
0.06 0.06 0.09 0.10 0.11 0.11 0.11 0.11 0.14 0.12 0.15 0.17 0.18 0.25 0.30 0.35 0.37 0.37 0.35 0.35 0.40 0.48 0.42 0.25 0.17 0.15 0.16 0.17 0.21 0.26 0.35 0.42 0.44 0.52 0.56 0.62 0.67 0.55 0.47 0.37 0.41 0.54 0.55
0.14 0.15 0.17 0.19 0.17 0.18 0.20 0.20 0.18 0.26 0.27 0.18 0.16 0.17 0.16 0.17 0.24 0.28 0.32 0.36 0.35 0.42 0.36 0.22 0.20 0.18 0.16 0.18 0.24 0.32 0.34 0.31 0.42 0.56 0.60 0.58 0.62 0.55 0.53 0.49 0.44 0.44 0.38
0.13 0.19 0.16 0.16 0.19 0.19 0.19 0.19 0.20 0.23 0.27 0.32 0.40 0.39 0.33 0.34 0.35 0.34 0.35 0.34 0.30 0.28 0.16 0.16 0.22 0.21 0.23 0.27 0.31 0.37 0.40 0.38 0.40 0.39 0.47 0.46 0.51 0.62 0.50 0.43 0.44 0.54 0.53
0.15 0.15 0.17 0.16 0.18 0.22 0.20 0.22 0.21 0.20 0.21 0.23 0.31 0.43 0.43 0.48 0.45 0.40 0.40 0.33 0.22 0.18 0.16 0.18 0.21 0.28 0.33 0.36 0.38 0.41 0.43 0.44 0.47 0.50 0.38 0.39 0.38 0.59 0.41 0.31 0.43 0.46 0.52
0.09 0.18 0.19 0.16 0.18 0.18 0.17 0.19 0.20 0.21 0.21 0.20 0.21 0.21 0.36 0.53 0.39 0.30 0.27 0.20 0.19 0.21 0.27 0.34 0.34 0.41 0.45 0.46 0.47 0.46 0.43 0.34 0.32 0.30 0.32 0.38 0.40 0.52 0.54 0.38 0.38 0.49 0.38
0.08 0.12 0.20 0.12 0.08 0.09 0.11 0.14 0.15 0.18 0.18 0.16 0.15 0.29 0.55 0.51 0.28 0.30 0.32 0.31 0.30 0.32 0.37 0.41 0.40 0.45 0.49 0.49 0.45 0.40 0.37 0.31 0.33 0.42 0.41 0.41 0.44 0.54 0.39 0.42 0.40 0.39 0.45
0.08 0.12 0.15 0.13 0.12 0.14 0.16 0.16 0.21 0.23 0.19 0.18 0.14 0.33 0.65 0.42 0.20 0.23 0.29 0.30 0.33 0.37 0.40 0.48 0.47 0.44 0.60 0.72 0.69 0.57 0.35 0.29 0.34 0.52 0.51 0.47 0.49 0.47 0.43 0.45 0.44 0.47 0.45
0.03 0.05 0.09 0.11 0.13 0.26 0.32 0.21 0.20 0.21 0.21 0.21 0.23 0.26 0.36 0.38 0.26 0.22 0.28 0.31 0.40 0.39 0.39 0.46 0.53 0.54 0.49 0.62 0.75 0.92 0.84 0.50 0.56 0.80 0.91 0.70 0.66 0.67 0.70 0.71 0.56 0.51 0.37
0.09 0.11 0.15 0.20 0.26 0.32 0.31 0.32 0.31 0.37 0.35 0.31 0.29 0.28 0.28 0.31 0.34 0.30 0.30 0.35 0.40 0.36 0.38 0.46 0.62 0.75 0.79 0.78 0.79 0.82 0.95 0.99 1.13 1.22 1.53 1.56 1.07 0.78 0.79 0.66 0.49 0.44 0.38
0.10 0.16 0.21 0.28 0.37 0.39 0.34 0.33 0.30 0.29 0.31 0.28 0.28 0.30 0.29 0.31 0.32 0.30 0.28 0.29 0.34 0.39 0.38 0.43 0.58 0.74 0.82 0.85 0.85 0.83 1.00 1.18 1.36 1.39 1.31 1.15 0.91 0.75 0.74 0.64 0.53 0.50 0.40
0.15 0.21 0.22 0.21 0.21 0.24 0.25 0.25 0.25 0.25 0.27 0.28 0.27 0.27 0.27 0.27 0.27 0.30 0.31 0.31 0.31 0.33 0.33 0.36 0.45 0.60 0.64 0.67 0.71 0.85 0.87 0.93 0.97 0.94 1.10 1.20 1.04 0.86 0.79 0.75 0.58 0.59 0.43

GFSGL_prec_precacc_150.txt.gz
Total_Precipitation_Accumulation
0.82 0.63 0.33 0.55 0.62 0.37 0.40 0.58 0.61 0.69 0.65 0.54 0.67 0.82 0.68 0.53 0.52 0.53 0.53 0.58 0.70 0.69 0.67 0.71 0.72 0.72 0.83 0.84 0.90 1.02 1.20 1.41 1.67 1.40 1.26 1.19 1.18 1.17 1.11 0.93 0.78 0.58 0.55
0.79 0.69 0.45 0.55 0.85 0.62 0.46 0.40 0.47 0.55 0.62 0.51 0.40 0.45 0.62 0.68 0.69 0.69 0.85 0.80 0.69 0.74 0.80 0.87 0.82 0.78 0.78 0.80 0.89 0.99 1.20 1.45 1.73 1.74 1.61 1.48 1.28 0.98 0.71 0.50 0.35 0.24 0.17
0.39 0.58 0.52 0.60 0.70 0.64 0.69 0.53 0.31 0.28 0.33 0.35 0.36 0.35 0.34 0.40 0.51 0.68 0.72 0.72 0.76 0.77 0.69 0.68 0.73 0.86 1.05 1.19 1.28 1.30 1.27 1.16 1.08 0.97 0.76 0.63 0.53 0.42 0.33 0.26 0.19 0.15 0.11
0.28 0.26 0.24 0.25 0.28 0.38 0.45 0.54 0.55 0.34 0.27 0.28 0.31 0.35 0.35 0.23 0.27 0.29 0.28 0.36 0.41 0.47 0.49 0.47 0.50 0.57 0.64 0.68 0.71 0.67 0.59 0.52 0.46 0.44 0.47 0.43 0.38 0.30 0.31 0.30 0.28 0.25 0.22
0.25 0.27 0.17 0.19 0.21 0.22 0.36 0.28 0.34 0.42 0.25 0.18 0.17 0.16 0.23 0.24 0.34 0.28 0.21 0.26 0.37 0.48 0.56 0.54 0.51 0.51 0.47 0.40 0.37 0.35 0.39 0.44 0.57 0.70 0.62 0.53 0.38 0.28 0.26 0.25 0.26 0.22 0.23
0.16 0.11 0.13 0.10 0.07 0.10 0.09 0.07 0.14 0.19 0.18 0.21 0.22 0.16 0.16 0.27 0.53 0.39 0.35 0.37 0.37 0.37 0.36 0.32 0.31 0.35 0.27 0.24 0.21 0.20 0.23 0.41 0.55 0.65 0.59 0.39 0.23 0.24 0.27 0.30 0.40 0.39 0.35
0.11 0.05 0.14 0.19 0.08 0.11 0.24 0.18 0.14 0.18 0.38 0.53 0.56 0.60 0.70 0.82 0.91 0.75 0.61 0.46 0.43 0.37 0.33 0.29 0.22 0.14 0.10 0.07 0.06 0.11 0.23 0.32 0.32 0.23 0.14 0.13 0.16 0.21 0.46 0.47 0.36 0.38 0.28
0.56 0.54 0.64 0.33 0.36 0.28 0.43 0.74 0.77 0.74 0.88 0.78 0.69 0.82 0.89 0.82 0.70 0.53 0.49 0.36 0.31 0.29 0.24 0.12 0.05 0.02 0.01 0.03 0.08 0.22 0.16 0.11 0.05 0.06 0.07 0.11 0.20 0.24 0.31 0.47 0.47 0.39 0.30
0.60 0.78 0.88 0.77 0.92 1.03 0.94 0.87 1.12 0.88 0.81 0.71 0.57 0.48 0.45 0.43 0.29 0.18 0.12 0.10 0.08 0.05 0.03 0.01 0.02 0.03 0.02 0.11 0.17 0.23 0.08 0.01 0.02 0.06 0.14 0.14 0.19 0.27 0.32 0.49 0.57 0.54 0.47
0.66 0.63 0.58 0.74 0.83 0.89 0.89 0.84 0.74 0.60 0.60 0.49 0.38 0.33 0.24 0.14 0.08 0.05 0.05 0.03 0.02 0.01 0.00 0.00 0.02 0.03 0.07 0.23 0.17 0.05 0.03 0.03 0.12 0.16 0.15 0.15 0.16 0.17 0.24 0.22 0.40 0.91 0.71
0.71 1.02 0.94 0.75 0.69 0.53 0.46 0.44 0.31 0.23 0.21 0.15 0.08 0.05 0.02 0.01 0.00 0.00 0.00 0.01 0.01 0.02 0.02 0.01 0.01 0.07 0.19 0.16 0.10 0.05 0.07 0.10 0.14 0.15 0.13 0.13 0.16 0.21 0.28 0.30 0.34 0.77 1.09
0.37 0.40 0.51 0.29 0.22 0.18 0.11 0.07 0.03 0.01 0.00 0.00 0.00 0.00 0.00 0.00 0.00 0.01 0.01 0.04 0.07 0.07 0.05 0.03 0.07 0.25 0.17 0.09 0.09 0.10 0.13 0.16 0.12 0.10 0.11 0.12 0.15 0.18 0.22 0.31 0.43 0.57 0.72
0.03 0.03 0.02 0.02 0.02 0.00 0.00 0.00 0.00 0.00 0.00 0.01 0.01 0.01 0.01 0.00 0.02 0.05 0.06 0.09 0.14 0.16 0.11 0.18 0.29 0.31 0.26 0.22 0.21 0.19 0.19 0.18 0.13 0.17 0.13 0.11 0.13 0.20 0.33 0.41 0.35 0.27 0.32
0.00 0.00 0.00 0.00 0.01 0.01 0.06 0.11 0.14 0.11 0.08 0.05 0.04 0.06 0.09 0.10 0.07 0.06 0.09 0.13 0.19 0.21 0.19 0.25 0.22 0.25 0.30 0.28 0.31 0.40 0.39 0.30 0.28 0.32 0.31 0.30 0.35 0.36 0.33 0.36 0.46 0.35 0.47
0.01 0.03 0.03 0.03 0.03 0.03 0.03 0.04 0.08 0.15 0.27 0.34 0.37 0.35 0.29 0.26 0.24 0.32 0.34 0.29 0.24 0.29 0.34 0.23 0.22 0.17 0.18 0.23 0.26 0.29 0.38 0.37 0.46 0.50 0.61 0.57 0.50 0.41 0.33 0.32 0.46 0.52 0.56
0.06 0.06 0.09 0.10 0.11 0.11 0.11 0.11 0.14 0.12 0.15 0.17 0.18 0.25 0.30 0.35 0.37 0.37 0.35 0.35 0.40 0.48 0.42 0.25 0.17 0.15 0.16 0.17 0.21 0.26 0.35 0.42 0.44 0.52 0.56 0.62 0.67 0.55 0.47 0.37 0.41 0.54 0.55
0.14 0.15 0.17 0.19 0.17 0.18 0.20 0.20 0.18 0.26 0.27 0.18 0.16 0.17 0.16 0.17 0.24 0.28 0.32 0.36 0.35 0.42 0.36 0.22 0.20 0.18 0.16 0.18 0.24 0.32 0.34 0.31 0.42 0.56 0.60 0.58 0.62 0.55 0.54 0.49 0.44 0.44 0.38
0.13 0.19 0.16 0.16 0.19 0.19 0.19 0.19 0.20 0.23 0.27 0.32 0.40 0.39 0.33 0.34 0.35 0.34 0.35 0.34 0.30 0.28 0.16 0.16 0.22 0.21 0.23 0.27 0.31 0.37 0.40 0.38 0.40 0.39 0.47 0.46 0.51 0.62 0.50 0.44 0.45 0.54 0.53
0.15 0.15 0.17 0.16 0.18 0.22 0.20 0.22 0.21 0.20 0.21 0.23 0.31 0.43 0.43 0.48 0.45 0.40 0.40 0.33 0.22 0.18 0.16 0.18 0.21 0.28 0.34 0.37 0.39 0.41 0.43 0.44 0.47 0.50 0.38 0.39 0.38 0.59 0.41 0.31 0.43 0.46 0.52
0.09 0.18 0.19 0.16 0.18 0.18 0.17 0.19 0.20 0.21 0.21 0.20 0.21 0.21 0.36 0.53 0.39 0.30 0.27 0.20 0.19 0.21 0.27 0.34 0.34 0.41 0.47 0.50 0.50 0.47 0.44 0.35 0.33 0.30 0.32 0.38 0.40 0.52 0.54 0.38 0.38 0.49 0.38
0.08 0.12 0.20 0.12 0.08 0.09 0.11 0.14 0.15 0.18 0.18 0.16 0.15 0.29 0.55 0.51 0.28 0.30 0.32 0.31 0.30 0.32 0.37 0.41 0.40 0.46 0.53 0.54 0.51 0.44 0.40 0.32 0.34 0.42 0.41 0.41 0.44 0.54 0.39 0.42 0.40 0.39 0.45
0.08 0.12 0.15 0.13 0.12 0.14 0.16 0.16 0.21 0.23 0.19 0.18 0.14 0.33 0.65 0.42 0.20 0.23 0.29 0.30 0.33 0.37 0.40 0.48 0.47 0.47 0.65 0.78 0.74 0.61 0.38 0.30 0.35 0.53 0.52 0.47 0.50 0.47 0.43 0.45 0.44 0.47 0.45
0.03 0.05 0.09 0.11 0.13 0.26 0.32 0.21 0.20 0.21 0.21 0.21 0.23 0.26 0.36 0.38 0.26 0.22 0.28 0.31 0.40 0.39 0.39 0.47 0.56 0.57 0.52 0.65 0.78 0.94 0.86 0.51 0.57 0.80 0.91 0.70 0.66 0.67 0.70 0.71 0.56 0.51 0.37
0.09 0.11 0.15 0.20 0.26 0.32 0.31 0.32 0.31 0.37 0.35 0.31 0.29 0.28 0.28 0.31 0.34 0.31 0.30 0.36 0.41 0.37 0.40 0.49 0.66 0.80 0.83 0.82 0.82 0.85 0.97 1.01 1.14 1.22 1.53 1.56 1.07 0.79 0.79 0.66 0.49 0.44 0.38
0.10 0.16 0.21 0.28 0.37 0.39 0.34 0.33 0.30 0.29 0.31 0.28 0.28 0.30 0.29 0.31 0.32 0.31 0.28 0.30 0.36 0.42 0.41 0.47 0.63 0.80 0.87 0.90 0.90 0.87 1.02 1.19 1.37 1.39 1.31 1.15 0.92 0.75 0.75 0.64 0.53 0.50 0.41
0.15 0.21 0.22 0.21 0.21 0.24 0.25 0.25 0.25 0.25 0.27 0.28 0.27 0.27 0.27 0.27 0.27 0.30 0.32 0.32 0.34 0.36 0.38 0.42 0.51 0.65 0.69 0.71 0.74 0.87 0.88 0.93 0.97 0.94 1.10 1.20 1.04 0.86 0.79 0.75 0.59 0.59 0.43

GFSGL_prec_precacc_153.txt.gz
Total_Precipitation_Accumulation
0.82 0.63 0.33 0.55 0.62 0.37 0.40 0.58 0.61 0.69 0.65 0.54 0.67 0.82 0.68 0.53 0.52 0.53 0.53 0.58 0.70 0.69 0.67 0.71 0.72 0.72 0.83 0.84 0.90 1.02 1.20 1.41 1.67 1.41 1.26 1.19 1.18 1.17 1.12 0.93 0.78 0.58 0.55
0.79 0.69 0.45 0.55 0.85 0.62 0.46 0.40 0.47 0.55 0.62 0.51 0.40 0.45 0.62 0.68 0.69 0.69 0.85 0.80 0.69 0.74 0.80 0.87 0.82 0.78 0.78 0.80 0.89 0.99 1.20 1.45 1.73 1.74 1.61 1.49 1.28 0.98 0.71 0.50 0.35 0.24 0.17
0.39 0.58 0.52 0.60 0.70 0.64 0.69 0.53 0.31 0.28 0.33 0.35 0.36 0.35 0.34 0.40 0.51 0.68 0.72 0.72 0.76 0.77 0.69 0.68 0.73 0.86 1.05 1.19 1.28 1.30 1.27 1.16 1.08 0.97 0.76 0.63 0.53 0.42 0.33 0.26 0.19 0.15 0.11
0.28 0.26 0.24 0.25 0.28 0.38 0.45 0.54 0.55 0.34 0.27 0.28 0.31 0.35 0.35 0.23 0.27 0.29 0.28 0.36 0.41 0.47 0.49 0.47 0.50 0.57 0.64 0.68 0.71 0.67 0.59 0.52 0.46 0.44 0.47 0.43 0.38 0.30 0.31 0.30 0.28 0.25 0.22
0.25 0.27 0.17 0.19 0.21 0.22 0.36 0.28 0.34 0.42 0.25 0.18 0.17 0.16 0.23 0.24 0.34 0.28 0.21 0.26 0.37 0.48 0.56 0.54 0.51 0.51 0.47 0.40 0.37 0.35 0.39 0.44 0.57 0.70 0.62 0.53 0.38 0.28 0.26 0.25 0.26 0.22 0.23
0.16 0.11 0.13 0.10 0.07 0.10 0.09 0.07 0.14 0.19 0.18 0.21 0.22 0.16 0.16 0.27 0.53 0.39 0.35 0.37 0.37 0.37 0.36 0.32 0.31 0.35 0.27 0.24 0.21 0.20 0.23 0.41 0.55 0.65 0.59 0.39 0.23 0.24 0.27 0.30 0.40 0.39 0.35
0.11 0.05 0.14 0.19 0.08 0.11 0.24 0.18 0.14 0.18 0.38 0.53 0.56 0.60 0.70 0.82 0.91 0.75 0.61 0.46 0.43 0.37 0.33 0.29 0.22 0.14 0.10 0.07 0.06 0.11 0.23 0.32 0.32 0.23 0.14 0.13 0.16 0.21 0.46 0.47 0.36 0.38 0.28
0.56 0.54 0.64 0.33 0.36 0.28 0.43 0.74 0.77 0.74 0.88 0.78 0.69 0.82 0.89 0.82 0.70 0.53 0.49 0.36 0.31 0.29 0.24 0.12 0.05 0.02 0.01 0.03 0.08 0.22 0.16 0.11 0.05 0.06 0.07 0.11 0.20 0.24 0.31 0.47 0.47 0.39 0.30
0.60 0.78 0.88 0.77 0.92 1.03 0.94 0.87 1.12 0.88 0.81 0.71 0.57 0.48 0.45 0.43 0.29 0.18 0.12 0.10 0.08 0.05 0.03 0.01 0.02 0.03 0.02 0.11 0.17 0.23 0.08 0.01 0.02 0.06 0.14 0.14 0.19 0.27 0.32 0.49 0.57 0.54 0.47
0.66 0.63 0.58 0.74 0.83 0.89 0.89 0.84 0.74 0.60 0.60 0.49 0.38 0.33 0.24 0.14 0.08 0.05 0.05 0.03 0.02 0.01 0.00 0.00 0.02 0.03 0.07 0.23 0.17 0.05 0.03 0.03 0.12 0.16 0.15 0.15 0.16 0.17 0.24 0.22 0.40 0.91 0.71
0.71 1.02 0.94 0.75 0.69 0.53 0.46 0.44 0.31 0.23 0.21 0.15 0.08 0.05 0.02 0.01 0.00 0.00 0.00 0.01 0.01 0.02 0.02 0.01 0.01 0.07 0.19 0.16 0.10 0.05 0.07 0.10 0.14 0.15 0.13 0.13 0.16 0.21 0.28 0.30 0.34 0.77 1.09
0.37 0.40 0.51 0.29 0.22 0.18 0.11 0.07 0.03 0.01 0.00 0.00 0.00 0.00 0.00 0.00 0.00 0.01 0.01 0.04 0.07 0.07 0.05 0.03 0.07 0.25 0.17 0.09 0.09 0.10 0.13 0.16 0.12 0.10 0.11 0.12 0.15 0.18 0.22 0.31 0.43 0.57 0.72
0.03 0.03 0.02 0.02 0.02 0.00 0.00 0.00 0.00 0.00 0.00 0.01 0.01 0.01 0.01 0.00 0.02 0.05 0.06 0.09 0.14 0.16 0.11 0.18 0.29 0.31 0.26 0.22 0.21 0.19 0.19 0.18 0.13 0.17 0.13 0.11 0.13 0.20 0.33 0.41 0.35 0.27 0.32
0.00 0.00 0.00 0.00 0.01 0.01 0.06 0.11 0.14 0.11 0.08 0.05 0.04 0.06 0.09 0.10 0.07 0.06 0.09 0.13 0.19 0.21 0.19 0.25 0.22 0.25 0.30 0.28 0.31 0.40 0.39 0.30 0.28 0.32 0.31 0.30 0.35 0.36 0.33 0.36 0.46 0.35 0.47
0.01 0.03 0.03 0.03 0.03 0.03 0.03 0.04 0.08 0.15 0.27 0.34 0.37 0.35 0.29 0.26 0.24 0.32 0.34 0.29 0.24 0.29 0.34 0.23 0.22 0.17 0.18 0.23 0.26 0.29 0.38 0.37 0.46 0.50 0.61 0.57 0.50 0.41 0.33 0.32 0.46 0.52 0.56
0.06 0.06 0.09 0.10 0.11 0.11 0.11 0.11 0.14 0.12 0.15 0.17 0.18 0.25 0.30 0.35 0.37 0.37 0.35 0.35 0.40 0.48 0.42 0.25 0.17 0.15 0.16 0.17 0.21 0.26 0.35 0.42 0.44 0.52 0.56 0.62 0.67 0.55 0.47 0.37 0.41 0.54 0.55
0.14 0.15 0.17 0.19 0.17 0.18 0.20 0.20 0.18 0.26 0.27 0.18 0.16 0.17 0.16 0.17 0.24 0.28 0.32 0.36 0.35 0.42 0.36 0.22 0.20 0.18 0.16 0.18 0.24 0.32 0.34 0.31 0.42 0.56 0.60 0.58 0.62 0.55 0.54 0.49 0.44 0.44 0.38
0.13 0.19 0.16 0.16 0.19 0.19 0.19 0.19 0.20 0.23 0.27 0.33 0.42 0.41 0.33 0.35 0.35 0.34 0.35 0.34 0.30 0.28 0.16 0.16 0.22 0.21 0.23 0.27 0.31 0.37 0.40 0.38 0.40 0.39 0.47 0.46 0.51 0.62 0.50 0.44 0.45 0.54 0.53
0.15 0.15 0.17 0.16 0.18 0.22 0.20 0.22 0.21 0.20 0.21 0.23 0.31 0.43 0.43 0.48 0.45 0.40 0.40 0.33 0.22 0.18 0.16 0.18 0.21 0.29 0.34 0.37 0.39 0.42 0.43 0.44 0.47 0.50 0.38 0.39 0.39 0.59 0.41 0.31 0.43 0.46 0.53
0.09 0.18 0.19 0.16 0.18 0.18 0.17 0.19 0.20 0.21 0.21 0.20 0.21 0.21 0.36 0.53 0.39 0.30 0.27 0.20 0.19 0.21 0.27 0.34 0.35 0.43 0.49 0.54 0.55 0.53 0.50 0.41 0.36 0.32 0.34 0.40 0.41 0.53 0.54 0.38 0.38 0.49 0.38
0.08 0.12 0.20 0.12 0.08 0.09 0.11 0.14 0.15 0.18 0.18 0.16 0.15 0.29 0.55 0.51 0.28 0.30 0.32 0.31 0.30 0.32 0.37 0.41 0.40 0.47 0.58 0.63 0.62 0.55 0.48 0.39 0.39 0.47 0.45 0.43 0.46 0.55 0.39 0.42 0.40 0.40 0.46
0.13 0.15 0.16 0.13 0.12 0.14 0.16 0.16 0.21 0.23 0.19 0.18 0.14 0.33 0.65 0.42 0.20 0.23 0.29 0.30 0.33 0.37 0.40 0.48 0.47 0.47 0.67 0.82 0.79 0.66 0.43 0.35 0.40 0.57 0.55 0.49 0.51 0.47 0.44 0.45 0.44 0.47 0.46
0.07 0.07 0.10 0.12 0.13 0.26 0.32 0.21 0.20 0.21 0.21 0.21 0.23 0.26 0.36 0.38 0.26 0.22 0.28 0.31 0.40 0.39 0.39 0.47 0.56 0.58 0.54 0.68 0.81 0.97 0.90 0.55 0.60 0.84 0.95 0.73 0.68 0.68 0.70 0.71 0.57 0.52 0.37
0.09 0.11 0.15 0.20 0.26 0.32 0.31 0.32 0.31 0.37 0.35 0.31 0.29 0.28 0.28 0.31 0.34 0.31 0.30 0.36 0.41 0.38 0.40 0.50 0.68 0.83 0.87 0.87 0.87 0.89 1.00 1.04 1.19 1.27 1.57 1.59 1.09 0.79 0.79 0.66 0.49 0.44 0.38
0.10 0.16 0.21 0.28 0.37 0.39 0.34 0.33 0.30 0.29 0.31 0.28 0.28 0.30 0.29 0.31 0.32 0.31 0.29 0.31 0.37 0.43 0.43 0.51 0.68 0.85 0.93 0.96 0.96 0.93 1.08 1.25 1.42 1.43 1.34 1.16 0.92 0.75 0.75 0.64 0.53 0.50 0.41
0.15 0.21 0.22 0.21 0.21 0.24 0.25 0.25 0.25 0.25 0.27 0.28 0.27 0.27 0.27 0.27 0.27 0.31 0.32 0.33 0.35 0.38 0.40 0.43 0.53 0.68 0.72 0.75 0.79 0.92 0.93 0.97 1.01 0.97 1.11 1.20 1.04 0.86 0.80 0.75 0.59 0.59 0.43

GFSGL_prec_precacc_156.txt.gz
Total_Precipitation_Accumulation
0.82 0.63 0.33 0.55 0.62 0.37 0.40 0.58 0.61 0.69 0.65 0.54 0.67 0.82 0.68 0.53 0.52 0.53 0.53 0.58 0.70 0.69 0.67 0.71 0.72 0.72 0.83 0.84 0.90 1.02 1.20 1.41 1.68 1.41 1.27 1.20 1.19 1.17 1.12 0.93 0.78 0.58 0.55
0.79 0.69 0.45 0.55 0.85 0.62 0.46 0.40 0.47 0.55 0.62 0.51 0.40 0.45 0.62 0.68 0.69 0.69 0.85 0.80 0.69 0.74 0.80 0.87 0.82 0.78 0.78 0.80 0.89 0.99 1.20 1.45 1.73 1.74 1.61 1.49 1.28 0.98 0.71 0.50 0.35 0.24 0.17
0.39 0.58 0.52 0.60 0.70 0.64 0.69 0.53 0.31 0.28 0.33 0.35 0.36 0.35 0.34 0.40 0.51 0.68 0.72 0.72 0.76 0.77 0.69 0.68 0.73 0.86 1.05 1.19 1.28 1.30 1.27 1.16 1.08 0.97 0.76 0.63 0.53 0.42 0.33 0.26 0.19 0.15 0.11
0.28 0.26 0.24 0.25 0.28 0.38 0.45 0.54 0.55 0.34 0.27 0.28 0.31 0.35 0.35 0.23 0.27 0.29 0.28 0.36 0.41 0.47 0.49 0.47 0.50 0.57 0.64 0.68 0.71 0.67 0.59 0.52 0.46 0.44 0.47 0.43 0.38 0.30 0.31 0.30 0.28 0.25 0.22
0.25 0.27 0.17 0.19 0.21 0.22 0.36 0.28 0.34 0.42 0.25 0.18 0.17 0.16 0.23 0.24 0.34 0.28 0.21 0.26 0.37 0.48 0.56 0.54 0.51 0.51 0.47 0.40 0.37 0.35 0.39 0.44 0.57 0.70 0.62 0.53 0.38 0.28 0.26 0.25 0.26 0.22 0.23
0.16 0.11 0.13 0.10 0.07 0.10 0.09 0.07 0.14 0.19 0.18 0.21 0.22 0.16 0.16 0.27 0.53 0.39 0.35 0.37 0.37 0.37 0.36 0.32 0.31 0.35 0.27 0.24 0.21 0.20 0.23 0.41 0.55 0.65 0.59 0.39 0.23 0.24 0.27 0.30 0.40 0.39 0.35
0.11 0.05 0.14 0.19 0.08 0.11 0.24 0.18 0.14 0.18 0.38 0.53 0.56 0.60 0.70 0.82 0.91 0.75 0.61 0.46 0.43 0.37 0.33 0.29 0.22 0.14 0.10 0.07 0.06 0.11 0.23 0.32 0.32 0.23 0.14 0.13 0.16 0.21 0.46 0.47 0.36 0.38 0.28
0.56 0.54 0.64 0.33 0.36 0.28 0.43 0.74 0.77 0.74 0.88 0.78 0.69 0.82 0.89 0.82 0.70 0.53 0.49 0.36 0.31 0.29 0.24 0.12 0.05 0.02 0.01 0.03 0.08 0.22 0.16 0.11 0.05 0.06 0.07 0.11 0.20 0.24 0.31 0.47 0.47 0.39 0.30
0.60 0.78 0.88 0.77 0.92 1.03 0.94 0.87 1.12 0.88 0.81 0.71 0.57 0.48 0.45 0.43 0.29 0.18 0.12 0.10 0.08 0.05 0.03 0.01 0.02 0.03 0.02 0.11 0.17 0.23 0.08 0.01 0.02 0.06 0.14 0.14 0.19 0.27 0.32 0.49 0.57 0.54 0.47
0.66 0.63 0.58 0.74 0.83 0.89 0.89 0.84 0.74 0.60 0.60 0.49 0.38 0.33 0.24 0.14 0.08 0.05 0.05 0.03 0.02 0.01 0.00 0.00 0.02 0.03 0.07 0.23 0.17 0.05 0.03 0.03 0.12 0.16 0.15 0.15 0.16 0.17 0.24 0.22 0.40 0.91 0.71
0.71 1.02 0.94 0.75 0.69 0.53 0.46 0.44 0.31 0.23 0.21 0.15 0.08 0.05 0.02 0.01 0.00 0.00 0.00 0.01 0.01 0.02 0.02 0.01 0.01 0.07 0.19 0.16 0.10 0.05 0.07 0.10 0.14 0.15 0.13 0.13 0.16 0.21 0.28 0.30 0.34 0.77 1.09
0.37 0.40 0.51 0.29 0.22 0.18 0.11 0.07 0.03 0.01 0.00 0.00 0.00 0.00 0.00 0.00 0.00 0.01 0.01 0.04 0.07 0.07 0.05 0.03 0.07 0.25 0.17 0.09 0.09 0.10 0.13 0.16 0.12 0.10 0.11 0.12 0.15 0.18 0.22 0.31 0.43 0.57 0.72
0.03 0.03 0.02 0.02 0.02 0.00 0.00 0.00 0.00 0.00 0.00 0.01 0.01 0.01 0.01 0.00 0.02 0.05 0.06 0.09 0.14 0.16 0.11 0.18 0.29 0.31 0.26 0.22 0.21 0.19 0.19 0.18 0.13 0.17 0.13 0.11 0.13 0.20 0.33 0.41 0.35 0.27 0.32
0.00 0.00 0.00 0.00 0.01 0.01 0.06 0.11 0.14 0.11 0.08 0.05 0.04 0.06 0.09 0.10 0.07 0.06 0.09 0.13 0.19 0.21 0.19 0.25 0.22 0.25 0.30 0.28 0.31 0.40 0.39 0.30 0.28 0.32 0.31 0.30 0.35 0.36 0.33 0.36 0.46 0.35 0.47
0.01 0.03 0.03 0.03 0.03 0.03 0.03 0.04 0.08 0.15 0.27 0.34 0.37 0.35 0.29 0.26 0.24 0.32 0.34 0.29 0.24 0.29 0.34 0.23 0.22 0.17 0.18 0.23 0.26 0.29 0.38 0.37 0.46 0.50 0.61 0.57 0.50 0.41 0.33 0.32 0.46 0.52 0.56
0.06 0.06 0.09 0.10 0.11 0.11 0.11 0.11 0.14 0.12 0.15 0.17 0.18 0.25 0.30 0.35 0.37 0.37 0.35 0.35 0.40 0.48 0.42 0.25 0.17 0.15 0.16 0.17 0.21 0.26 0.35 0.42 0.44 0.52 0.56 0.62 0.67 0.55 0.47 0.37 0.41 0.54 0.55
0.14 0.15 0.17 0.19 0.17 0.18 0.20 0.20 0.18 0.26 0.27 0.18 0.16 0.17 0.16 0.18 0.25 0.29 0.34 0.38 0.37 0.44 0.37 0.22 0.20 0.18 0.16 0.18 0.24 0.32 0.34 0.31 0.42 0.56 0.60 0.58 0.62 0.55 0.54 0.49 0.44 0.44 0.38
0.13 0.19 0.16 0.16 0.19 0.19 0.19 0.19 0.20 0.23 0.27 0.33 0.42 0.41 0.34 0.36 0.36 0.36 0.37 0.36 0.31 0.31 0.18 0.17 0.24 0.23 0.25 0.28 0.32 0.38 0.41 0.39 0.40 0.39 0.47 0.46 0.51 0.62 0.50 0.44 0.45 0.54 0.53
0.15 0.15 0.17 0.16 0.18 0.22 0.20 0.22 0.21 0.20 0.21 0.23 0.31 0.43 0.43 0.48 0.45 0.40 0.40 0.33 0.22 0.18 0.17 0.20 0.24 0.36 0.44 0.47 0.47 0.48 0.48 0.47 0.49 0.51 0.39 0.40 0.39 0.61 0.43 0.32 0.43 0.46 0.53
0.09 0.18 0.19 0.17 0.19 0.18 0.17 0.19 0.21 0.21 0.21 0.20 0.21 0.21 0.36 0.53 0.39 0.30 0.27 0.20 0.19 0.21 0.27 0.34 0.36 0.45 0.56 0.64 0.67 0.64 0.59 0.48 0.43 0.37 0.37 0.44 0.44 0.56 0.57 0.40 0.39 0.50 0.39
0.08 0.13 0.23 0.16 0.12 0.12 0.12 0.15 0.15 0.18 0.18 0.16 0.15 0.29 0.55 0.51 0.28 0.30 0.32 0.31 0.30 0.32 0.37 0.41 0.40 0.47 0.60 0.70 0.72 0.65 0.56 0.44 0.44 0.52 0.50 0.49 0.51 0.59 0.42 0.44 0.41 0.40 0.46
0.13 0.16 0.19 0.17 0.16 0.18 0.18 0.17 0.21 0.23 0.19 0.18 0.14 0.33 0.65 0.42 0.20 0.23 0.29 0.30 0.33 0.37 0.40 0.49 0.48 0.47 0.67 0.84 0.84 0.72 0.49 0.41 0.45 0.63 0.62 0.56 0.57 0.52 0.48 0.48 0.46 0.48 0.46
0.08 0.08 0.10 0.13 0.14 0.27 0.33 0.21 0.20 0.21 0.21 0.21 0.23 0.26 0.36 0.38 0.26 0.22 0.28 0.31 0.40 0.39 0.40 0.47 0.56 0.58 0.56 0.71 0.84 0.99 0.94 0.59 0.65 0.89 1.00 0.78 0.73 0.73 0.74 0.73 0.58 0.52 0.37
0.10 0.11 0.15 0.20 0.26 0.32 0.31 0.32 0.31 0.37 0.35 0.31 0.29 0.28 0.28 0.31 0.34 0.31 0.30 0.36 0.41 0.38 0.40 0.51 0.69 0.86 0.90 0.91 0.91 0.93 1.05 1.09 1.24 1.33 1.61 1.64 1.14 0.84 0.83 0.69 0.51 0.45 0.38
0.10 0.16 0.21 0.28 0.37 0.39 0.34 0.33 0.30 0.29 0.31 0.28 0.28 0.30 0.29 0.31 0.32 0.31 0.29 0.31 0.37 0.43 0.43 0.52 0.70 0.87 0.96 1.00 1.00 0.97 1.14 1.31 1.47 1.49 1.40 1.22 0.97 0.78 0.77 0.66 0.54 0.50 0.41
0.15 0.21 0.22 0.21 0.21 0.24 0.25 0.25 0.25 0.25 0.27 0.28 0.27 0.27 0.27 0.27 0.27 0.31 0.33 0.33 0.35 0.38 0.41 0.45 0.55 0.69 0.74 0.77 0.82 0.97 0.99 1.03 1.06 1.01 1.16 1.25 1.07 0.89 0.81 0.76 0.59 0.60 0.43

GFSGL_prec_precacc_159.txt.gz
Total_Precipitation_Accumulation
0.82 0.63 0.33 0.55 0.62 0.37 0.40 0.58 0.61 0.69 0.65 0.54 0.67 0.82 0.68 0.53 0.52 0.53 0.53 0.58 0.70 0.69 0.67 0.71 0.72 0.72 0.83 0.84 0.90 1.02 1.20 1.41 1.68 1.41 1.27 1.20 1.19 1.17 1.12 0.93 0.78 0.58 0.55
0.79 0.69 0.45 0.55 0.85 0.62 0.46 0.40 0.47 0.55 0.62 0.51 0.40 0.45 0.62 0.68 0.69 0.69 0.85 0.80 0.69 0.74 0.80 0.87 0.82 0.78 0.78 0.80 0.89 0.99 1.20 1.45 1.73 1.74 1.61 1.49 1.28 0.98 0.71 0.50 0.35 0.24 0.17
0.39 0.58 0.52 0.60 0.70 0.64 0.69 0.53 0.31 0.28 0.33 0.35 0.36 0.35 0.34 0.40 0.51 0.68 0.72 0.72 0.76 0.77 0.69 0.68 0.73 0.86 1.05 1.19 1.28 1.30 1.27 1.16 1.08 0.97 0.76 0.63 0.53 0.42 0.33 0.26 0.19 0.15 0.11
0.28 0.26 0.24 0.25 0.28 0.38 0.45 0.54 0.55 0.34 0.27 0.28 0.31 0.35 0.35 0.23 0.27 0.29 0.28 0.36 0.41 0.47 0.49 0.47 0.50 0.57 0.64 0.68 0.71 0.67 0.59 0.52 0.46 0.44 0.47 0.43 0.38 0.30 0.31 0.30 0.28 0.25 0.22
0.25 0.27 0.17 0.19 0.21 0.22 0.36 0.28 0.34 0.42 0.25 0.18 0.17 0.16 0.23 0.24 0.34 0.28 0.21 0.26 0.37 0.48 0.56 0.54 0.51 0.51 0.47 0.40 0.37 0.35 0.39 0.44 0.57 0.70 0.62 0.53 0.38 0.28 0.26 0.25 0.26 0.22 0.23
0.16 0.11 0.13 0.10 0.07 0.10 0.09 0.07 0.14 0.19 0.18 0.21 0.22 0.16 0.16 0.27 0.53 0.39 0.35 0.37 0.37 0.37 0.36 0.32 0.31 0.35 0.27 0.24 0.21 0.20 0.23 0.41 0.55 0.65 0.59 0.39 0.23 0.24 0.27 0.30 0.40 0.39 0.35
0.11 0.05 0.14 0.19 0.08 0.11 0.24 0.18 0.14 0.18 0.38 0.53 0.56 0.60 0.70 0.82 0.91 0.75 0.61 0.46 0.43 0.37 0.33 0.29 0.22 0.14 0.10 0.07 0.06 0.11 0.23 0.32 0.32 0.23 0.14 0.13 0.16 0.21 0.46 0.47 0.36 0.38 0.28
0.56 0.54 0.64 0.33 0.36 0.28 0.43 0.74 0.77 0.74 0.88 0.78 0.69 0.82 0.89 0.82 0.70 0.53 0.49 0.36 0.31 0.29 0.24 0.12 0.05 0.02 0.01 0.03 0.08 0.22 0.16 0.11 0.05 0.06 0.07 0.11 0.20 0.24 0.31 0.47 0.47 0.39 0.30
0.60 0.78 0.88 0.77 0.92 1.03 0.94 0.87 1.12 0.88 0.81 0.71 0.57 0.48 0.45 0.43 0.29 0.18 0.12 0.10 0.08 0.05 0.03 0.01 0.02 0.03 0.02 0.11 0.17 0.23 0.08 0.01 0.02 0.06 0.14 0.14 0.19 0.27 0.32 0.49 0.57 0.54 0.47
0.66 0.63 0.58 0.74 0.83 0.89 0.89 0.84 0.74 0.60 0.60 0.49 0.38 0.33 0.24 0.14 0.08 0.05 0.05 0.03 0.02 0.01 0.00 0.00 0.02 0.03 0.07 0.23 0.17 0.05 0.03 0.03 0.12 0.16 0.15 0.15 0.16 0.17 0.24 0.22 0.40 0.91 0.71
0.71 1.02 0.94 0.75 0.69 0.53 0.46 0.44 0.31 0.23 0.21 0.15 0.08 0.05 0.02 0.01 0.00 0.00 0.00 0.01 0.01 0.02 0.02 0.01 0.01 0.07 0.19 0.16 0.10 0.05 0.07 0.10 0.14 0.15 0.13 0.13 0.16 0.21 0.28 0.30 0.34 0.77 1.09
0.37 0.40 0.51 0.29 0.22 0.18 0.11 0.07 0.03 0.01 0.00 0.00 0.00 0.00 0.00 0.00 0.00 0.01 0.01 0.04 0.07 0.07 0.05 0.03 0.07 0.25 0.17 0.09 0.09 0.10 0.13 0.16 0.12 0.10 0.11 0.12 0.15 0.18 0.22 0.31 0.43 0.57 0.72
0.03 0.03 0.02 0.02 0.02 0.00 0.00 0.00 0.00 0.00 0.00 0.01 0.01 0.01 0.01 0.00 0.02 0.05 0.06 0.09 0.14 0.16 0.11 0.18 0.29 0.31 0.26 0.22 0.21 0.19 0.19 0.18 0.13 0.17 0.13 0.11 0.13 0.20 0.33 0.41 0.35 0.27 0.32
0.00 0.00 0.00 0.00 0.01 0.01 0.06 0.11 0.14 0.11 0.08 0.05 0.04 0.06 0.09 0.10 0.07 0.06 0.09 0.13 0.19 0.21 0.19 0.25 0.22 0.25 0.30 0.28 0.31 0.40 0.39 0.30 0.28 0.32 0.31 0.30 0.35 0.36 0.33 0.36 0.46 0.35 0.47
0.01 0.03 0.03 0.03 0.03 0.03 0.03 0.04 0.08 0.15 0.27 0.34 0.37 0.35 0.29 0.26 0.24 0.32 0.34 0.29 0.24 0.29 0.34 0.23 0.22 0.17 0.18 0.23 0.26 0.29 0.38 0.37 0.46 0.50 0.61 0.57 0.50 0.41 0.33 0.32 0.46 0.52 0.56
0.06 0.06 0.09 0.10 0.11 0.11 0.11 0.11 0.14 0.12 0.15 0.17 0.18 0.25 0.30 0.35 0.37 0.37 0.35 0.35 0.40 0.48 0.43 0.25 0.17 0.15 0.16 0.17 0.21 0.26 0.35 0.42 0.44 0.52 0.56 0.62 0.67 0.55 0.47 0.37 0.41 0.54 0.55
0.14 0.15 0.17 0.19 0.17 0.18 0.20 0.20 0.18 0.26 0.27 0.18 0.16 0.17 0.16 0.18 0.25 0.29 0.34 0.39 0.38 0.48 0.41 0.23 0.21 0.19 0.17 0.20 0.25 0.33 0.35 0.33 0.44 0.57 0.61 0.59 0.63 0.56 0.54 0.50 0.44 0.44 0.38
0.13 0.19 0.16 0.16 0.19 0.19 0.19 0.19 0.20 0.23 0.27 0.33 0.42 0.41 0.34 0.36 0.36 0.36 0.37 0.37 0.32 0.33 0.23 0.21 0.27 0.28 0.33 0.36 0.41 0.47 0.50 0.49 0.48 0.43 0.52 0.49 0.54 0.64 0.51 0.44 0.45 0.54 0.53
0.15 0.15 0.17 0.16 0.18 0.22 0.21 0.23 0.22 0.20 0.21 0.23 0.31 0.43 0.43 0.48 0.45 0.40 0.40 0.33 0.22 0.18 0.17 0.21 0.26 0.38 0.48 0.54 0.57 0.60 0.60 0.58 0.58 0.60 0.46 0.45 0.44 0.65 0.46 0.33 0.45 0.47 0.53
0.09 0.18 0.19 0.17 0.20 0.20 0.20 0.22 0.23 0.21 0.21 0.20 0.21 0.21 0.36 0.53 0.39 0.30 0.27 0.20 0.19 0.21 0.27 0.34 0.36 0.46 0.57 0.67 0.74 0.73 0.69 0.56 0.50 0.44 0.44 0.50 0.52 0.63 0.61 0.44 0.42 0.52 0.40
0.08 0.13 0.23 0.16 0.12 0.13 0.15 0.18 0.17 0.19 0.18 0.16 0.15 0.29 0.55 0.51 0.28 0.30 0.32 0.31 0.30 0.32 0.37 0.41 0.40 0.48 0.60 0.71 0.77 0.73 0.64 0.49 0.49 0.58 0.57 0.56 0.59 0.65 0.47 0.48 0.45 0.43 0.49
0.13 0.16 0.19 0.17 0.16 0.18 0.19 0.17 0.21 0.23 0.19 0.18 0.14 0.33 0.65 0.42 0.20 0.23 0.29 0.30 0.33 0.37 0.40 0.49 0.48 0.47 0.68 0.86 0.86 0.76 0.52 0.45 0.52 0.71 0.70 0.62 0.63 0.58 0.53 0.52 0.49 0.51 0.48
0.08 0.08 0.10 0.13 0.14 0.27 0.33 0.21 0.20 0.21 0.21 0.21 0.23 0.26 0.36 0.38 0.26 0.22 0.28 0.31 0.40 0.39 0.40 0.47 0.56 0.58 0.56 0.73 0.87 1.02 0.95 0.61 0.67 0.94 1.06 0.82 0.77 0.77 0.78 0.76 0.61 0.55 0.40
0.10 0.11 0.15 0.20 0.26 0.32 0.31 0.32 0.31 0.37 0.35 0.31 0.29 0.28 0.28 0.31 0.34 0.31 0.30 0.36 0.41 0.38 0.40 0.51 0.70 0.86 0.91 0.92 0.93 0.95 1.08 1.13 1.28 1.37 1.66 1.68 1.18 0.88 0.86 0.71 0.53 0.47 0.40
0.10 0.16 0.21 0.28 0.37 0.39 0.34 0.33 0.30 0.29 0.31 0.28 0.28 0.30 0.29 0.31 0.32 0.31 0.29 0.31 0.37 0.43 0.43 0.52 0.70 0.88 0.97 1.01 1.02 0.99 1.19 1.36 1.52 1.54 1.45 1.27 1.02 0.82 0.80 0.68 0.56 0.52 0.42
0.15 0.21 0.22 0.21 0.21 0.24 0.25 0.25 0.25 0.25 0.27 0.28 0.27 0.27 0.27 0.27 0.27 0.31 0.33 0.33 0.36 0.38 0.41 0.45 0.55 0.70 0.75 0.78 0.83 1.00 1.02 1.05 1.09 1.04 1.19 1.28 1.11 0.92 0.84 0.78 0.61 0.61 0.44